COSMOS 2116

Satellite information

Favourite Embed

Satellite Type and Status

PAYLOADIN ORBIT

Key statistics

Satellite COSMOS 2116 at a glance.

Uptime

12618

Days in orbit

Revolutions

≈ 12.6

Per day

Orbit

LEO

Low Earth Orbit

Inclination

82.6

Latest

Satellite identification and parameters

Extended collection of information and parameters for COSMOS 2116.

Object identification

Identified? True

Debris? False

Object name: COSMOS 2116

International designator: 1990-114C

Object number (NORAD): 21030

Object ID (CCSDS): 21030

Country: COMMONWEALTH OF INDEPENDENT STATES (CIS)

Current information (Y/N): Y

RCS size: MEDIUM

Orbital parameters

Period: 113.896 minutes

Inclination: 82.5736 deg

SMA: 7783.333 km

Apoapsis: 1408.874 km

Periapsis: 1401.522 km

RAAN: 67.7309 deg

Eccentricy: 0.0004723

Argument of periapsis: 154.5421 deg

Mean anomaly: 259.3682 deg

Mean motion: 12.64312307 rev/day

Mean motion (dot): 0.00000023 rev/day2

B* drag term: 0.000064705 1/REarth

Two-line elements (TLE)

Creation date: July 8, 2025, 2:27 a.m.

Reference frame: TEME

Reference center: EARTH

Epoch: July 7, 2025, 4:05 p.m. UTC

TLE line 0: 0 COSMOS 2116

TLE line 1: 1 21030U 90114C 25188.67072723 .00000023 00000-0 64705-4 0 9990

TLE line 2: 2 21030 82.5736 67.7309 0004723 154.5421 259.3682 12.64312307593897

Live tracking on map

Real-time ground track for satellite COSMOS 2116.

In-orbit conjunctions

A list of the most updated potential collisions computed for object COSMOS 2116.

Target Orbit TCA Probability of collision Miss distance Type
COSMOS 1830 LEO 2025-07-01 03:35:49 0.0002608686 239.0 (m) PAYLOAD

Associated space launch

Second generation store-dump military communications satellite

COSMOS 2116 was lifted into orbit during the mission ‘Tsiklon-3 | Strela-3 55 to 60’, on board a Tsiklon-3 space rocket.

The launch took place on Dec. 22, 1990, 7:28 a.m. from 32/2.

For more information about the launch, click the button.

Launch to space Tsiklon-3 | Strela-3 55 to 60
Tsiklon-3 | Strela-3 55 to 60

Agency: N/A

Status: Launch Successful

Launch date: Dec. 22, 1990, 7:28 a.m. UTC

Rocket: Tsiklon-3

Launch pad: 32/2

Location: Plesetsk Cosmodrome, Russian Federation

...

Latest news about this satellite

There are no fresh news available about this satellite. Check back as we update our databases every day.


Newsletter sign-up

Weekly statistics, charts and insights to help you stay on top of the space industry.